#timestamp,LO_Frequency,Hit,StdDev 
1513548015.4,286046998.8,N
1513548035.3,286046997.2,N
1513548055.1,286046999.8,N
1513548075.8,286046996.8,N
1513548095.7,286046995.7,N
1513548115.5,286046994.1,N
1513548135.4,286046995.5,N
1513548155.2,286046998.7,N
1513548175.0,286047006.0,N
1513548175.9,286047006.0,N
1513548195.8,286047006.4,N
1513548215.6,286047002.9,N
1513548235.5,286047006.0,N
1513548255.3,286047001.6,N
1513548275.1,286047004.8,N
1513548295.9,286047005.4,N
1513548315.7,286047010.8,Y
1513548335.5,286047008.7,P
1513548355.4,286047007.9,N
1513548375.2,286047003.7,N
1513548395.1,286047003.2,N
1513548396.0,286047003.2,N
1513548415.8,286047002.3,N
1513548435.6,286047002.5,N
1513548455.5,286046999.5,N
1513548475.3,286046999.1,N
1513548495.2,286047005.3,N
1513548515.9,286047006.0,N
1513548535.7,286047001.6,N
1513548555.6,286047005.8,N
1513548575.4,286047008.0,N
1513548595.2,286047008.0,N
1513548615.1,286047005.8,N
1513548616.0,286047005.8,N
1513548635.8,286047004.9,N
1513548655.7,286047005.8,N
1513548675.5,286047004.7,N
1513548695.3,286047006.6,N
1513548715.2,286047004.7,N
1513548735.0,286047007.4,N
1513548735.9,286047007.4,N
1513548755.8,286047002.4,N
1513548775.6,286047004.1,N
1513548795.4,286047004.2,N
1513548815.3,286047003.3,N
1513548835.1,286047001.9,N
1513548855.8,286047004.1,N
1513548875.7,286047002.6,N
1513548895.5,286047004.9,N
1513548915.4,286047008.8,Y
1513548935.2,286047002.0,P
1513548955.0,286047001.7,N
1513548955.9,286047001.7,N
1513548975.8,286047002.0,N
1513548995.6,286047004.1,Y
1513549015.5,286047002.5,P
1513549035.3,286047000.9,P
1513549055.1,286047001.9,N
1513549075.9,286047002.6,Y
1513549095.7,286046998.3,P
1513549115.6,286046996.9,N
1513549135.4,286046997.8,N
1513549155.2,286046998.4,N
1513549175.1,286047004.8,N
1513549176.0,286047004.8,N
1513549195.8,286047005.8,N
1513549215.7,286047004.4,N
1513549235.5,286047001.4,N
1513549255.3,286047002.2,N
1513549275.2,286047001.9,N
1513549295.0,286047004.3,N
1513549295.9,286047004.3,N
1513549315.7,286047003.0,N
1513549335.6,286047000.6,N
1513549355.4,286047001.7,N
1513549375.3,286047004.3,N
1513549395.1,286047000.7,N
1513549396.0,286047000.7,N
1513549415.8,286047000.6,N
1513549435.7,286047001.9,N
1513549455.5,286046998.4,N
1513549475.4,286046997.2,N
1513549495.2,286046996.3,N
1513549515.0,286046995.9,N
1513549515.9,286046995.9,N
1513549535.8,286046997.6,N
1513549555.6,286046997.3,N
1513549575.4,286046995.2,N
1513549595.3,286046996.8,N
1513549615.1,286046998.8,N
1513549635.9,286046999.4,N
1513549655.7,286046997.8,N
1513549675.5,286046998.8,N
1513549695.4,286046998.6,N
1513549715.2,286046998.4,N
1513549735.1,286046998.5,N
1513549736.0,286046998.5,N
1513549755.8,286047001.1,N
1513549775.6,286046996.6,N
1513549795.5,286046997.6,N
1513549815.3,286046997.2,N
1513549835.2,286046997.2,N
1513549855.9,286046999.6,N
1513549875.7,286046997.2,N
1513549895.6,286046996.9,N
1513549915.4,286046996.8,N
1513549935.2,286046997.1,N
1513549955.1,286046995.4,N
1513549956.0,286046995.4,N
1513549975.8,286046993.3,Y
1513549995.7,286046998.6,P
1513550015.5,286046995.5,P
1513550035.3,286046999.5,N
1513550055.2,286047002.3,N
1513550075.0,286047002.9,N
1513550075.9,286047002.9,N
1513550095.8,286047004.1,N
1513550115.6,286047005.3,N
1513550135.4,286047005.4,N
1513550155.3,286047005.8,N
1513550175.1,286047002.7,N
1513550195.9,286047006.0,N
1513550215.7,286047003.4,N
1513550235.5,286047000.7,N
1513550255.4,286047000.4,N
1513550275.2,286047001.3,N
1513550295.0,286047003.7,N
1513550295.9,286047003.7,N
1513550315.8,286047003.7,N
1513550335.6,286047004.2,N
1513550355.5,286047001.5,N
1513550375.3,286046999.3,N
1513550395.1,286047001.5,N
1513550415.9,286047005.8,N
1513550435.7,286046999.7,N
1513550455.6,286046999.1,N
1513550475.4,286047004.2,N
1513550495.2,286047003.8,N
1513550515.1,286047004.4,N
1513550516.0,286047004.4,N
1513550535.8,286047006.6,N
1513550555.7,286047007.9,Y
1513550575.5,286047003.3,P
1513550595.3,286047002.5,P
1513550615.2,286046998.2,P
1513550635.0,286046998.9,N
1513550635.9,286046998.9,N
1513550655.7,286046998.9,N
1513550675.6,286046998.0,N
1513550695.4,286046997.2,N
1513550715.3,286046995.6,N
1513550735.1,286046993.2,N
1513550755.8,286046990.7,Y
1513550775.7,286046993.2,P
1513550795.5,286046988.5,P
1513550815.4,286046988.7,N
1513550835.2,286046995.9,N
1513550855.0,286046996.2,N
1513550855.9,286046996.2,N
1513550875.8,286046999.4,N
1513550895.6,286046997.0,N
1513550915.5,286046997.6,N
1513550935.3,286046994.9,N
1513550955.1,286046998.2,N
1513550975.9,286047000.8,N
1513550995.7,286047002.5,N
1513551015.5,286047001.2,N
1513551035.4,286047001.1,N
1513551055.2,286046999.0,N
1513551075.1,286046998.5,N
1513551076.0,286046998.5,N
1513551095.8,286047004.5,N
1513551115.6,286047002.4,N
1513551135.5,286046998.2,N
1513551155.3,286047002.8,N
1513551175.2,286046999.0,N
1513551195.9,286046998.3,N
1513551215.7,286047002.3,N
1513551235.6,286046999.9,N
1513551285.4,286047001.7,E
1513551295.4,286047004.4,N
1513551315.2,286046999.6,P
1513551335.0,286046999.4,N
1513551335.9,286046999.4,N
1513551355.8,286047001.2,N
1513551375.6,286047002.2,N
1513551395.5,286047000.8,N
1513551415.3,286046999.0,N
1513551435.1,286046997.5,N
1513551455.9,286046995.4,N
1513551475.7,286046994.9,N
1513551495.5,286046999.2,N
1513551515.4,286046995.5,N
1513551535.2,286046996.2,N
1513551555.1,286046997.6,N
1513551556.0,286046997.6,N
1513551575.8,286047000.2,N
1513551595.6,286046998.4,N
